SCP
0 0 0 0 0 0 0 0 0 0 -0 -0 -0 -0 0 0 0 0 -0 -0 -0 -0 0 0 0 0 0 0 0 0 0 0 0 0 0 0 0 0 0 0 0 0 0 0 0 0 0
0 0 0 0 0 0 0 0 0 0 0 -0 -0 -0 -0 0 0 0 0 -0 -0 -0 0 -0 0 0 0 0 0 0 0 0 0 0 0 0 0 0 0 0 0 0 0 0 0 0 0
0 0 0 0 0 0 0 0 0 -0 -0 -0 -0 -0 -0 -0 0 0 0 0 -0 -0 0 0 -0 0 0 0 0 0 0 0 0 0 0 0 0 0 0 0 0 0 0 0 0 0 0
0 0 0 0 0 0 0 0 0 -0 -0 -0 -0 -0 -0 0 0 -0 -0 -0 -0 0 0 0 0 0 0 0 0 0 0 0 0 0 0 0 0 0 0 0 0 0 0 0 0 0 0
0 0 0 0 0 0 0 0 0 0 0 -0 -0 -0 -0 -0 -0 -0 -0 -0 -0 0 0 0 0 0 0 0 0 0 0 0 0 0 0 0 0 0 0 0 0 0 0 0 0 0 0
0 0 0 0 0 0 0 0 0 0 0 0 -0 -0 -0 -0 -0 -0 0 0 0 0 0 0 0 0 0 0 0 0 0 0 0 0 0 0 0 0 0 0 0 0 0 0 0 0 0
0 0 0 0 0 0 0 0 0 0 0 0 0 0 0 0 0 -0 -0 0 0 0 0 0 0 0 0 0 0 0 0 0 0 0 0 0 0 0 0 0 0 0 0 0 0 0 0
0 0 0 0 0 0 0 0 0 0 0 0 0 0 0 0 0 -0 0 0 0 0 0 0 0 0 0 0 0 0 0 0 0 0 0 0 0 0 0 0 0 0 0 0 0 0 0
0 0 0 0 0 0 0 0 0 0 0 0 0 0 0 0 -0 0 0 0 0 0 0 0 0 0 0 0 0 0 0 0 0 0 0 0 0 0 0 0 0 0 0 0 0 0 0
0 0 0 0 0 0 0 0 0 0 0 0 0 0 0 0 0 0 0 0 0 0 0 0 0 0 0 0 0 0 0 0 0 0 0 0 0 0 0 0 0 0 0 0 0 0 0
0 0 0 0 0 0 0 0 0 0 0 0 0 0 0 -0 0 0 0 0 0 0 0 0 0 0 0 0 0 0 0 0 0 0 0 0 0 0 0 0 0 0 0 0 0 0 0
0 0 0 0 0 0 0 0 0 0 0 0 0 0 0 -0 0 0 0 0 0 0 0 0 0 0 0 0 0 0 0 0 0 0 0 0 0 0 0 0 0 0 0 0 0 0 0
0 0 0 0 0 0 0 0 0 0 0 0 0 0 0 0 0 0 0 0 0 0 0 0 0 0 0 0 0 0 0 0 0 0 0 0 0 0 0 0 0 0 0 0 0 0 0
0 0 0 0 0 0 0 0 0 0 0 0 0 -0 0 0 0 0 0 0 0 0 0 0 0 0 0 0 0 0 0 0 0 0 0 0 0 0 0 0 0 0 0 0 0 0 0
0 0 0 0 0 0 0 0 0 0 0 0 0 0 0 0 0 0 0 0 0 0 0 0 0 0 0 0 0 0 0 0 0 0 0 0 0 0 0 0 0 0 0 0 0 0 0
0 0 0 0 0 0 0 0 0 0 0 0 0 0 0 0 0 0 0 0 0 0 0 0 0 0 0 0 0 0 0 0 0 0 0 0 0 0 0 0 0 0 0 0 0 0 0
0 0 0 0 0 0 -0 0 0 0 0 0 0 0 0 0 0 0 0 0 0 0 0 0 0 0 0 0 0 0 0 0 0 0 0 0 0 0 0 0 0 0 0 0 0 0 0
0 0 0 0 0 0 0 0 0 0 0 0 0 0 0 0 0 0 0 0 0 0 0 0 0 0 0 0 0 0 0 0 0 0 0 0 0 0 0 0 0 0 0 0 0 0 0
0 0 0 0 0 0 0 0 0 0 0 0 0 0 0 0 0 0 0 0 0 0 0 0 0 0 0 0 0 0 0 0 0 0 0 0 0 0 0 0 0 0 0 0 0 0 0
0 0 0 0 0 0 0 0 0 0 0 0 0 0 0 0 0 0 0 0 0 0 0 0 0 0 0 0 0 0 0 0 0 0 0 0 0 0 0 0 0 0 0 0 0 0 0
0 0 0 0 0 0 0 0 0 0 0 0 0 0 0 0 0 0 0 0 0 0 0 0 0 0 0 0 0 0 0 0 0 0 0 0 0 0 0 0 0 0 0 0 0 0 0
0 0 0 0 0 0 0 0 0 0 0 0 0 0 0 0 0 0 0 0 0 0 0 0 0 0 0 0 0 0 0 0 0 0 0 0 0 0 0 0 0 0 0 0 0 0 0
0 0 0 0 0 0 0 0 0 0 0 0 0 0 0 0 0 0 0 0 0 0 0 0 0 0 0 0 0 0 0 0 0 0 0 0 0 0 0 0 0 0 0 0 0 0 0
0 0 0 0 0 0 0 0 0 0 0 0 0 0 0 0 0 0 0 0 0 0 0 0 0 0 0 0 0 0 0 0 0 0 0 0 0 0 0 0 0 0 0 0 0 0 0
0 0 0 0 0 0 0 0 0 0 0 0 0 0 0 0 0 0 0 0 0 0 0 0 0 0 0 0 0 0 0 0 0 0 0 0 0 0 0 0 0 0 0 0 0 0 0
0 0 0 0 0 0 0 0 0 0 0 0 0 0 0 0 0 0 0 0 0 0 0 0 0 0 0 0 0 0 0 0 0 0 0 0 0 0 0 0 0 0 0 0 0 0 0
0 0 0 0 0 0 0 0 0 0 0 0 0 0 0 0 0 0 0 0 0 0 0 0 0 0 0 0 0 0 0 0 0 0 0 0 0 0 0 0 0 0 0 0 0 0 0
0 0 0 0 -0 0 -0 -0 -0 0 0 0 0 0 0 0 0 0 0 0 0 0 0 0 0 0 0 0 0 0 0 0 0 0 0 0 0 0 0 0 0 0 0 0 0 0 0
0 0 0 -0 -0 -0 -0 -0 -0 0 0 0 0 0 0 0 0 0 0 0 0 0 0 0 0 0 0 0 0 0 0 0 0 0 0 0 0 0 0 0 0 0 0 0 0 0 0
Wind_Speed_500mb
51 50 44 43 40 41 40 39 37 33 30 29 32 32 32 31 31 32 31 34 34 35 25 14 10 12 11 14 24 12 8 15 55 59 55 41 44 20 12 14 10 6 9 22 35 42 40
49 48 45 41 40 39 41 39 37 36 35 32 31 34 35 34 34 35 35 32 35 33 22 19 10 10 13 9 18 17 8 14 46 66 56 45 36 41 14 12 15 14 38 36 39 43 32
45 45 43 42 41 41 41 43 43 43 41 39 37 34 37 40 38 38 37 35 34 28 16 19 17 13 21 41 12 18 12 14 31 51 55 53 22 23 10 6 13 11 9 11 15 32 17
41 44 42 45 44 41 41 44 45 46 45 46 43 41 40 40 43 41 41 36 34 27 17 19 19 18 23 9 28 26 19 24 28 32 38 37 41 21 10 7 8 2 6 1 10 7 19
42 40 44 50 50 44 40 41 43 44 43 45 45 45 45 45 42 43 46 37 34 23 17 20 18 16 26 24 34 33 27 25 29 27 33 18 25 18 8 11 6 8 6 8 10 11 4
39 39 45 49 52 49 44 41 41 42 44 42 46 46 45 44 43 42 47 44 23 16 16 14 17 11 29 18 43 40 31 22 25 27 19 16 16 7 5 8 12 11 7 7 9 3 7
34 40 45 51 51 48 47 44 43 45 47 46 47 47 43 44 44 44 53 25 7 8 30 28 19 16 3 7 25 43 41 37 23 13 11 12 8 12 17 11 7 7 3 8 8 8 3
33 39 46 53 53 51 50 48 50 52 51 52 49 50 49 45 43 52 51 22 18 5 14 37 54 48 45 31 6 29 47 29 15 12 7 7 10 15 8 7 8 8 6 11 19 13 13
34 40 48 55 54 52 51 50 47 49 52 53 54 53 51 49 51 32 14 3 8 20 8 17 43 47 37 26 15 19 53 31 11 11 12 14 12 14 9 7 7 9 8 11 17 11 5
35 42 49 56 54 53 54 53 53 52 50 52 53 54 51 52 28 13 13 10 4 25 3 10 16 17 25 18 9 23 52 48 6 19 14 10 12 10 9 12 15 13 17 23 12 7 8
38 45 51 56 59 61 58 57 57 54 53 52 51 50 49 50 49 35 7 15 28 9 5 9 12 12 36 30 17 23 41 38 16 11 14 13 11 9 8 13 13 14 5 13 13 10 5
42 48 56 61 62 65 65 65 62 59 57 56 55 50 51 48 34 6 5 4 22 6 12 9 16 13 14 12 7 13 21 29 21 9 5 16 5 7 12 10 10 2 2 12 10 7 2
44 54 58 62 67 69 70 67 64 62 61 59 59 50 48 46 17 10 3 22 5 6 11 9 10 13 12 11 8 10 14 13 12 11 12 1 8 9 10 6 2 7 11 5 6 3 10
53 57 60 63 66 70 71 75 70 65 63 62 64 50 39 31 13 20 9 6 6 10 11 10 11 15 10 9 7 12 12 10 4 9 6 10 6 13 9 14 15 12 17 11 11 8 7
55 58 61 63 63 67 71 77 73 64 63 63 65 48 30 20 26 24 12 5 10 7 3 12 10 13 6 8 10 9 15 13 8 10 11 9 6 6 8 3 12 7 8 10 12 5 6
51 58 57 52 65 69 72 76 70 61 61 60 65 51 22 18 37 29 4 10 9 10 23 6 8 8 15 15 8 10 14 3 10 6 9 6 2 7 8 5 6 7 8 4 5 8 9
53 54 54 64 57 63 76 71 57 52 59 56 45 27 4 33 37 17 7 11 9 9 16 6 4 5 4 11 10 9 4 5 7 6 11 8 8 6 5 5 5 9 4 8 9 8 10
47 48 45 54 62 67 66 64 46 45 52 45 22 7 2 44 7 6 6 9 4 5 12 6 9 3 4 4 8 7 9 6 13 3 9 4 8 3 7 12 6 3 5 6 7 8 3
49 50 51 57 65 62 49 48 43 37 40 47 31 15 14 32 5 6 8 5 5 7 1 10 5 6 5 6 10 9 9 5 19 9 5 7 4 4 9 10 11 11 6 10 8 6 10
47 46 47 44 45 45 43 39 41 32 30 35 13 7 5 26 3 3 4 8 8 6 5 4 8 9 10 10 12 9 8 11 7 10 18 13 6 11 12 6 6 4 0 4 9 6 5
46 44 43 43 44 43 40 39 39 31 26 25 8 6 4 6 4 3 7 7 10 10 10 4 9 6 10 6 7 8 7 7 14 8 11 8 7 3 4 5 5 6 11 12 14 13 14
47 42 40 41 41 40 40 34 32 29 25 10 7 7 16 10 16 7 9 2 9 9 8 6 11 9 12 10 4 9 10 4 6 9 6 7 4 4 6 7 4 8 16 16 14 16 19
49 48 40 39 41 38 38 34 28 27 18 9 14 14 8 10 8 2 7 15 3 11 18 12 22 14 19 8 13 14 6 7 9 12 5 7 10 6 7 8 9 13 12 14 12 12 10
49 48 46 42 42 34 32 32 25 20 17 13 13 19 8 6 6 6 7 29 4 5 13 9 20 11 7 5 4 3 2 10 8 6 13 11 10 5 4 6 3 9 11 12 13 6 6
51 49 46 41 40 31 30 29 24 15 19 15 11 11 7 5 7 9 21 4 18 38 17 21 18 16 11 7 7 8 7 4 8 9 9 10 9 6 7 7 11 6 4 5 4 5 3
46 45 45 40 36 31 29 24 17 14 19 14 7 11 7 3 3 14 10 12 4 4 7 9 19 11 5 7 6 5 5 3 5 8 5 8 8 8 6 5 10 9 3 7 2 8 4
45 43 42 36 32 28 28 23 17 15 17 14 6 8 4 4 3 15 7 6 8 7 7 5 5 8 9 5 5 3 3 5 3 8 10 8 2 12 11 9 11 8 7 2 8 10 8
47 45 43 34 28 25 24 22 15 14 12 9 5 5 7 4 14 10 6 5 9 9 5 4 7 6 7 7 5 3 3 3 3 3 6 10 10 7 7 8 12 6 5 4 8 10 18
40 43 39 31 23 22 21 17 14 13 10 9 4 6 6 7 9 13 12 7 4 6 4 5 7 4 4 7 2 4 2 5 1 3 3 5 10 8 13 10 10 9 14 24 20 17 21
Wind_Direction_500mb
339 343 340 340 339 339 339 341 342 338 331 326 324 325 325 326 324 325 329 331 333 329 289 275 279 273 243 238 248 200 226 207 186 183 185 175 180 169 174 197 195 226 267 253 252 258 262
336 339 337 338 334 334 334 333 335 336 332 328 323 321 320 319 321 320 320 323 326 328 285 268 246 250 246 260 233 219 215 196 190 186 186 187 195 187 210 204 157 222 231 255 266 266 266
333 335 335 335 336 331 330 328 326 325 325 324 321 317 315 316 316 316 317 317 316 320 276 263 265 243 250 241 208 198 222 216 194 192 191 198 183 177 182 199 219 243 216 270 257 263 233
332 332 339 337 334 332 328 323 320 320 320 320 314 313 312 311 312 310 309 311 308 301 261 249 259 261 256 257 219 195 187 182 192 198 202 196 189 229 217 266 22 358 36 219 273 260 255
329 333 340 339 335 332 326 323 323 324 322 325 321 316 311 311 311 307 306 310 302 284 250 243 249 244 265 222 208 181 181 179 170 185 193 137 191 225 190 132 19 354 205 190 290 208 216
328 336 344 342 339 337 334 333 332 333 329 325 322 318 314 312 313 308 305 314 295 261 227 218 213 271 248 225 205 190 184 166 171 180 205 223 203 166 67 112 199 207 207 223 202 245 182
334 340 343 341 340 338 335 332 331 330 328 326 325 322 318 315 313 310 308 318 236 200 206 203 210 217 28 327 195 207 200 198 202 174 165 181 137 197 204 184 174 185 208 266 260 253 306
334 339 340 339 338 337 335 332 330 328 328 327 328 326 321 316 313 307 298 278 223 145 279 247 242 248 253 261 283 212 195 183 174 211 152 55 218 221 202 169 210 229 244 267 290 260 168
332 336 339 338 336 334 333 329 324 323 325 326 326 327 324 316 316 309 293 340 329 244 269 263 227 233 238 230 223 213 195 182 145 155 170 166 225 173 170 244 235 244 204 244 225 292 220
332 334 336 338 337 333 329 328 325 322 321 322 323 325 325 317 317 307 318 311 293 169 344 260 186 234 195 178 221 204 198 189 150 179 147 215 253 203 194 230 181 252 215 230 238 252 238
328 330 335 341 342 340 335 328 325 321 321 320 320 319 320 316 298 290 304 355 137 134 254 168 161 176 171 170 144 186 197 182 166 156 123 229 167 162 185 214 181 222 135 213 206 186 134
325 330 333 336 337 341 336 335 326 322 319 319 318 315 315 308 287 213 300 186 146 66 253 187 135 159 135 191 155 135 160 188 189 145 128 208 184 150 206 211 192 346 24 38 41 93 237
321 325 328 329 330 332 334 331 327 322 319 320 317 313 306 289 258 192 344 159 71 197 301 175 163 150 158 160 160 137 154 154 149 149 216 108 226 204 183 214 348 105 67 335 329 340 218
313 315 320 321 323 324 326 331 331 326 323 322 316 314 300 260 215 231 202 67 206 241 278 331 140 131 159 131 214 155 120 145 146 115 132 166 236 174 180 184 189 188 160 160 208 207 247
306 312 311 315 315 321 323 329 330 326 325 325 320 317 294 230 203 194 203 157 223 221 148 272 119 149 224 164 135 126 173 184 159 161 159 153 260 330 74 87 151 172 173 193 108 19 75
306 309 316 317 314 319 319 323 326 325 326 331 326 319 281 190 186 182 126 232 233 212 308 267 157 90 182 182 101 120 153 120 131 197 143 177 87 4 341 46 24 124 149 107 11 164 226
310 309 308 306 312 312 314 320 323 325 328 333 328 318 309 170 170 170 198 236 261 298 11 282 158 128 101 138 131 118 66 45 52 43 99 111 110 285 5 28 60 2 47 60 120 131 160
315 311 306 301 308 311 314 320 326 328 332 339 339 310 324 161 115 183 205 214 284 5 336 302 97 110 127 55 82 100 131 106 23 44 78 49 115 184 245 325 249 111 105 114 148 215 137
320 314 307 305 305 314 324 328 329 330 342 338 316 278 193 186 209 211 262 232 263 171 356 319 76 62 65 118 102 102 106 103 144 34 161 168 34 77 355 347 4 76 34 89 105 92 209
325 325 327 330 330 328 328 326 323 327 337 333 302 307 341 214 250 266 282 249 183 174 167 7 26 63 69 46 26 110 95 36 59 104 94 110 130 161 192 161 170 205 215 165 156 155 213
332 332 330 331 330 328 328 329 328 328 332 327 254 268 19 276 219 288 257 286 192 167 142 173 19 48 133 101 67 87 59 57 42 43 46 87 138 129 192 193 189 228 247 219 208 217 214
337 334 333 332 328 325 326 326 325 328 334 310 286 337 337 296 311 346 327 285 229 122 26 68 106 50 88 108 120 149 132 130 163 35 71 10 124 66 304 284 348 263 264 263 237 236 245
341 341 334 329 329 329 330 333 325 334 347 328 336 331 318 299 315 264 344 318 130 123 44 96 134 95 75 135 122 129 117 142 141 135 114 105 130 108 264 5 343 296 239 209 232 223 221
339 337 338 330 329 331 334 332 331 330 336 320 314 334 326 305 352 347 359 300 75 43 113 57 87 91 133 105 115 121 201 216 184 167 135 130 115 109 202 35 236 241 285 247 240 60 36
337 337 336 336 334 333 333 330 335 332 326 307 313 327 315 310 318 344 344 102 54 76 80 74 61 94 127 101 66 33 355 109 207 196 166 135 123 124 150 202 291 303 45 8 43 253 212
335 336 336 337 334 333 329 329 333 330 326 307 286 318 297 311 36 323 321 21 51 68 54 63 74 69 96 77 72 116 196 292 142 110 136 105 112 124 167 195 221 232 212 305 118 266 40
341 341 338 335 335 339 333 333 329 321 321 324 288 357 295 332 313 16 10 354 13 45 89 82 44 20 33 77 81 137 263 308 180 140 151 129 69 203 216 234 280 275 314 33 111 240 253
339 333 337 335 339 342 338 349 342 328 323 331 318 294 333 250 286 300 346 34 15 34 113 144 88 7 43 68 112 214 108 286 356 157 181 162 171 200 190 209 254 318 25 179 219 291 278
342 342 334 333 342 339 340 348 352 352 355 341 354 359 302 291 278 276 272 250 284 53 110 75 116 105 146 91 108 92 56 58 79 269 51 178 185 181 182 215 216 251 237 273 266 272 267
Wind_Speed_850mb
51 50 44 43 40 41 40 39 37 33 30 29 32 32 32 31 31 32 31 34 34 35 25 14 10 12 11 14 24 12 8 15 55 59 55 41 44 20 12 14 10 6 9 22 35 42 40
49 48 45 41 40 39 41 39 37 36 35 32 31 34 35 34 34 35 35 32 35 33 22 19 10 10 13 9 18 17 8 14 46 66 56 45 36 41 14 12 15 14 38 36 39 43 32
45 45 43 42 41 41 41 43 43 43 41 39 37 34 37 40 38 38 37 35 34 28 16 19 17 13 21 41 12 18 12 14 31 51 55 53 22 23 10 6 13 11 9 11 15 32 17
41 44 42 45 44 41 41 44 45 46 45 46 43 41 40 40 43 41 41 36 34 27 17 19 19 18 23 9 28 26 19 24 28 32 38 37 41 21 10 7 8 2 6 1 10 7 19
42 40 44 50 50 44 40 41 43 44 43 45 45 45 45 45 42 43 46 37 34 23 17 20 18 16 26 24 34 33 27 25 29 27 33 18 25 18 8 11 6 8 6 8 10 11 4
39 39 45 49 52 49 44 41 41 42 44 42 46 46 45 44 43 42 47 44 23 16 16 14 17 11 29 18 43 40 31 22 25 27 19 16 16 7 5 8 12 11 7 7 9 3 7
34 40 45 51 51 48 47 44 43 45 47 46 47 47 43 44 44 44 53 25 7 8 30 28 19 16 3 7 25 43 41 37 23 13 11 12 8 12 17 11 7 7 3 8 8 8 3
33 39 46 53 53 51 50 48 50 52 51 52 49 50 49 45 43 52 51 22 18 5 14 37 54 48 45 31 6 29 47 29 15 12 7 7 10 15 8 7 8 8 6 11 19 13 13
34 40 48 55 54 52 51 50 47 49 52 53 54 53 51 49 51 32 14 3 8 20 8 17 43 47 37 26 15 19 53 31 11 11 12 14 12 14 9 7 7 9 8 11 17 11 5
35 42 49 56 54 53 54 53 53 52 50 52 53 54 51 52 28 13 13 10 4 25 3 10 16 17 25 18 9 23 52 48 6 19 14 10 12 10 9 12 15 13 17 23 12 7 8
38 45 51 56 59 61 58 57 57 54 53 52 51 50 49 50 49 35 7 15 28 9 5 9 12 12 36 30 17 23 41 38 16 11 14 13 11 9 8 13 13 14 5 13 13 10 5
42 48 56 61 62 65 65 65 62 59 57 56 55 50 51 48 34 6 5 4 22 6 12 9 16 13 14 12 7 13 21 29 21 9 5 16 5 7 12 10 10 2 2 12 10 7 2
44 54 58 62 67 69 70 67 64 62 61 59 59 50 48 46 17 10 3 22 5 6 11 9 10 13 12 11 8 10 14 13 12 11 12 1 8 9 10 6 2 7 11 5 6 3 10
53 57 60 63 66 70 71 75 70 65 63 62 64 50 39 31 13 20 9 6 6 10 11 10 11 15 10 9 7 12 12 10 4 9 6 10 6 13 9 14 15 12 17 11 11 8 7
55 58 61 63 63 67 71 77 73 64 63 63 65 48 30 20 26 24 12 5 10 7 3 12 10 13 6 8 10 9 15 13 8 10 11 9 6 6 8 3 12 7 8 10 12 5 6
51 58 57 52 65 69 72 76 70 61 61 60 65 51 22 18 37 29 4 10 9 10 23 6 8 8 15 15 8 10 14 3 10 6 9 6 2 7 8 5 6 7 8 4 5 8 9
53 54 54 64 57 63 76 71 57 52 59 56 45 27 4 33 37 17 7 11 9 9 16 6 4 5 4 11 10 9 4 5 7 6 11 8 8 6 5 5 5 9 4 8 9 8 10
47 48 45 54 62 67 66 64 46 45 52 45 22 7 2 44 7 6 6 9 4 5 12 6 9 3 4 4 8 7 9 6 13 3 9 4 8 3 7 12 6 3 5 6 7 8 3
49 50 51 57 65 62 49 48 43 37 40 47 31 15 14 32 5 6 8 5 5 7 1 10 5 6 5 6 10 9 9 5 19 9 5 7 4 4 9 10 11 11 6 10 8 6 10
47 46 47 44 45 45 43 39 41 32 30 35 13 7 5 26 3 3 4 8 8 6 5 4 8 9 10 10 12 9 8 11 7 10 18 13 6 11 12 6 6 4 0 4 9 6 5
46 44 43 43 44 43 40 39 39 31 26 25 8 6 4 6 4 3 7 7 10 10 10 4 9 6 10 6 7 8 7 7 14 8 11 8 7 3 4 5 5 6 11 12 14 13 14
47 42 40 41 41 40 40 34 32 29 25 10 7 7 16 10 16 7 9 2 9 9 8 6 11 9 12 10 4 9 10 4 6 9 6 7 4 4 6 7 4 8 16 16 14 16 19
49 48 40 39 41 38 38 34 28 27 18 9 14 14 8 10 8 2 7 15 3 11 18 12 22 14 19 8 13 14 6 7 9 12 5 7 10 6 7 8 9 13 12 14 12 12 10
49 48 46 42 42 34 32 32 25 20 17 13 13 19 8 6 6 6 7 29 4 5 13 9 20 11 7 5 4 3 2 10 8 6 13 11 10 5 4 6 3 9 11 12 13 6 6
51 49 46 41 40 31 30 29 24 15 19 15 11 11 7 5 7 9 21 4 18 38 17 21 18 16 11 7 7 8 7 4 8 9 9 10 9 6 7 7 11 6 4 5 4 5 3
46 45 45 40 36 31 29 24 17 14 19 14 7 11 7 3 3 14 10 12 4 4 7 9 19 11 5 7 6 5 5 3 5 8 5 8 8 8 6 5 10 9 3 7 2 8 4
45 43 42 36 32 28 28 23 17 15 17 14 6 8 4 4 3 15 7 6 8 7 7 5 5 8 9 5 5 3 3 5 3 8 10 8 2 12 11 9 11 8 7 2 8 10 8
47 45 43 34 28 25 24 22 15 14 12 9 5 5 7 4 14 10 6 5 9 9 5 4 7 6 7 7 5 3 3 3 3 3 6 10 10 7 7 8 12 6 5 4 8 10 18
40 43 39 31 23 22 21 17 14 13 10 9 4 6 6 7 9 13 12 7 4 6 4 5 7 4 4 7 2 4 2 5 1 3 3 5 10 8 13 10 10 9 14 24 20 17 21
Wind_Direction_850mb
339 343 340 340 339 339 339 341 342 338 331 326 324 325 325 326 324 325 329 331 333 329 289 275 279 273 243 238 248 200 226 207 186 183 185 175 180 169 174 197 195 226 267 253 252 258 262
336 339 337 338 334 334 334 333 335 336 332 328 323 321 320 319 321 320 320 323 326 328 285 268 246 250 246 260 233 219 215 196 190 186 186 187 195 187 210 204 157 222 231 255 266 266 266
333 335 335 335 336 331 330 328 326 325 325 324 321 317 315 316 316 316 317 317 316 320 276 263 265 243 250 241 208 198 222 216 194 192 191 198 183 177 182 199 219 243 216 270 257 263 233
332 332 339 337 334 332 328 323 320 320 320 320 314 313 312 311 312 310 309 311 308 301 261 249 259 261 256 257 219 195 187 182 192 198 202 196 189 229 217 266 22 358 36 219 273 260 255
329 333 340 339 335 332 326 323 323 324 322 325 321 316 311 311 311 307 306 310 302 284 250 243 249 244 265 222 208 181 181 179 170 185 193 137 191 225 190 132 19 354 205 190 290 208 216
328 336 344 342 339 337 334 333 332 333 329 325 322 318 314 312 313 308 305 314 295 261 227 218 213 271 248 225 205 190 184 166 171 180 205 223 203 166 67 112 199 207 207 223 202 245 182
334 340 343 341 340 338 335 332 331 330 328 326 325 322 318 315 313 310 308 318 236 200 206 203 210 217 28 327 195 207 200 198 202 174 165 181 137 197 204 184 174 185 208 266 260 253 306
334 339 340 339 338 337 335 332 330 328 328 327 328 326 321 316 313 307 298 278 223 145 279 247 242 248 253 261 283 212 195 183 174 211 152 55 218 221 202 169 210 229 244 267 290 260 168
332 336 339 338 336 334 333 329 324 323 325 326 326 327 324 316 316 309 293 340 329 244 269 263 227 233 238 230 223 213 195 182 145 155 170 166 225 173 170 244 235 244 204 244 225 292 220
332 334 336 338 337 333 329 328 325 322 321 322 323 325 325 317 317 307 318 311 293 169 344 260 186 234 195 178 221 204 198 189 150 179 147 215 253 203 194 230 181 252 215 230 238 252 238
328 330 335 341 342 340 335 328 325 321 321 320 320 319 320 316 298 290 304 355 137 134 254 168 161 176 171 170 144 186 197 182 166 156 123 229 167 162 185 214 181 222 135 213 206 186 134
325 330 333 336 337 341 336 335 326 322 319 319 318 315 315 308 287 213 300 186 146 66 253 187 135 159 135 191 155 135 160 188 189 145 128 208 184 150 206 211 192 346 24 38 41 93 237
321 325 328 329 330 332 334 331 327 322 319 320 317 313 306 289 258 192 344 159 71 197 301 175 163 150 158 160 160 137 154 154 149 149 216 108 226 204 183 214 348 105 67 335 329 340 218
313 315 320 321 323 324 326 331 331 326 323 322 316 314 300 260 215 231 202 67 206 241 278 331 140 131 159 131 214 155 120 145 146 115 132 166 236 174 180 184 189 188 160 160 208 207 247
306 312 311 315 315 321 323 329 330 326 325 325 320 317 294 230 203 194 203 157 223 221 148 272 119 149 224 164 135 126 173 184 159 161 159 153 260 330 74 87 151 172 173 193 108 19 75
306 309 316 317 314 319 319 323 326 325 326 331 326 319 281 190 186 182 126 232 233 212 308 267 157 90 182 182 101 120 153 120 131 197 143 177 87 4 341 46 24 124 149 107 11 164 226
310 309 308 306 312 312 314 320 323 325 328 333 328 318 309 170 170 170 198 236 261 298 11 282 158 128 101 138 131 118 66 45 52 43 99 111 110 285 5 28 60 2 47 60 120 131 160
315 311 306 301 308 311 314 320 326 328 332 339 339 310 324 161 115 183 205 214 284 5 336 302 97 110 127 55 82 100 131 106 23 44 78 49 115 184 245 325 249 111 105 114 148 215 137
320 314 307 305 305 314 324 328 329 330 342 338 316 278 193 186 209 211 262 232 263 171 356 319 76 62 65 118 102 102 106 103 144 34 161 168 34 77 355 347 4 76 34 89 105 92 209
325 325 327 330 330 328 328 326 323 327 337 333 302 307 341 214 250 266 282 249 183 174 167 7 26 63 69 46 26 110 95 36 59 104 94 110 130 161 192 161 170 205 215 165 156 155 213
332 332 330 331 330 328 328 329 328 328 332 327 254 268 19 276 219 288 257 286 192 167 142 173 19 48 133 101 67 87 59 57 42 43 46 87 138 129 192 193 189 228 247 219 208 217 214
337 334 333 332 328 325 326 326 325 328 334 310 286 337 337 296 311 346 327 285 229 122 26 68 106 50 88 108 120 149 132 130 163 35 71 10 124 66 304 284 348 263 264 263 237 236 245
341 341 334 329 329 329 330 333 325 334 347 328 336 331 318 299 315 264 344 318 130 123 44 96 134 95 75 135 122 129 117 142 141 135 114 105 130 108 264 5 343 296 239 209 232 223 221
339 337 338 330 329 331 334 332 331 330 336 320 314 334 326 305 352 347 359 300 75 43 113 57 87 91 133 105 115 121 201 216 184 167 135 130 115 109 202 35 236 241 285 247 240 60 36
337 337 336 336 334 333 333 330 335 332 326 307 313 327 315 310 318 344 344 102 54 76 80 74 61 94 127 101 66 33 355 109 207 196 166 135 123 124 150 202 291 303 45 8 43 253 212
335 336 336 337 334 333 329 329 333 330 326 307 286 318 297 311 36 323 321 21 51 68 54 63 74 69 96 77 72 116 196 292 142 110 136 105 112 124 167 195 221 232 212 305 118 266 40
341 341 338 335 335 339 333 333 329 321 321 324 288 357 295 332 313 16 10 354 13 45 89 82 44 20 33 77 81 137 263 308 180 140 151 129 69 203 216 234 280 275 314 33 111 240 253
339 333 337 335 339 342 338 349 342 328 323 331 318 294 333 250 286 300 346 34 15 34 113 144 88 7 43 68 112 214 108 286 356 157 181 162 171 200 190 209 254 318 25 179 219 291 278
342 342 334 333 342 339 340 348 352 352 355 341 354 359 302 291 278 276 272 250 284 53 110 75 116 105 146 91 108 92 56 58 79 269 51 178 185 181 182 215 216 251 237 273 266 272 267